TimeEDT,TemperatureF,Dew PointF,Humidity,Sea Level PressureIn,VisibilityMPH,Wind Direction,Wind SpeedMPH,Gust SpeedMPH,PrecipitationIn,Events,Conditions,WindDirDegrees,DateUTC
12:20 AM,59.0,59.0,100,29.89,10.0,NE,5.8,-,N/A,,Overcast,50,2012-09-30 04:20:00
12:41 AM,60.8,59.0,94,29.88,10.0,NE,4.6,-,N/A,,Overcast,50,2012-09-30 04:41:00
12:53 AM,60.1,59.0,96,29.88,10.0,NE,5.8,-,N/A,,Overcast,50,2012-09-30 04:53:00
1:12 AM,60.8,59.0,94,29.88,10.0,NNE,4.6,-,N/A,,Overcast,20,2012-09-30 05:12:00
1:33 AM,60.8,59.0,94,29.88,10.0,NNE,4.6,-,0.00,Rain,Light Rain,20,2012-09-30 05:33:00
1:50 AM,60.8,59.0,94,29.87,9.0,NNE,5.8,-,0.00,Rain,Light Rain,30,2012-09-30 05:50:00
1:53 AM,60.1,59.0,96,29.87,9.0,NNE,4.6,-,0.00,Rain,Light Rain,30,2012-09-30 05:53:00
2:17 AM,60.8,59.0,94,29.86,10.0,NE,4.6,-,0.01,,Overcast,40,2012-09-30 06:17:00
2:53 AM,60.1,59.0,96,29.85,9.0,NE,5.8,-,0.01,Rain,Light Rain,40,2012-09-30 06:53:00
3:53 AM,60.1,59.0,96,29.84,7.0,NNE,6.9,-,0.03,Rain,Light Rain,30,2012-09-30 07:53:00
4:23 AM,60.8,59.0,94,29.83,7.0,NNE,8.1,-,0.02,Rain,Light Rain,30,2012-09-30 08:23:00
4:37 AM,60.8,59.0,94,29.82,6.0,NE,8.1,-,0.04,Rain,Light Rain,40,2012-09-30 08:37:00
4:53 AM,60.1,60.1,100,29.83,6.0,NE,6.9,-,0.06,Rain,Light Rain,40,2012-09-30 08:53:00
5:53 AM,60.1,59.0,96,29.81,6.0,NNE,11.5,-,0.09,Rain,Rain,30,2012-09-30 09:53:00
6:53 AM,60.1,59.0,96,29.81,7.0,NE,8.1,-,0.07,Rain,Light Rain,40,2012-09-30 10:53:00
7:53 AM,60.8,60.1,97,29.80,8.0,NE,9.2,-,0.03,Rain,Light Rain,40,2012-09-30 11:53:00
8:53 AM,60.8,60.1,97,29.78,9.0,NNE,9.2,-,0.01,Rain,Light Rain,30,2012-09-30 12:53:00
9:05 AM,-9999,-9999,N/A,29.78,1.8,Calm,Calm,-,0.04,Rain,Heavy Rain,0,2012-09-30 13:05:00
9:45 AM,60.8,60.8,100,29.78,1.0,NNW,15.0,-,0.29,Rain,Heavy Rain,330,2012-09-30 13:45:00
10:00 AM,59.0,57.2,94,29.78,2.0,NNW,16.1,23.0,0.04,Rain,Heavy Rain,330,2012-09-30 14:00:00
10:38 AM,59.0,57.2,94,29.77,7.0,North,10.4,-,0.08,Rain,Light Rain,350,2012-09-30 14:38:00
11:06 AM,59.0,57.2,94,29.75,9.0,North,13.8,-,0.00,Rain,Light Rain,10,2012-09-30 15:06:00
11:53 AM,60.8,57.0,87,29.77,10.0,NNE,9.2,-,0.04,,Overcast,20,2012-09-30 15:53:00
12:53 PM,63.0,59.0,87,29.76,10.0,NNW,6.9,-,0.00,,Overcast,340,2012-09-30 16:53:00
1:32 PM,62.6,57.2,82,29.75,10.0,NW,6.9,-,N/A,,Overcast,320,2012-09-30 17:32:00
1:53 PM,60.1,57.9,93,29.75,2.0,WNW,12.7,-,0.01,Rain,Light Rain,300,2012-09-30 17:53:00
2:07 PM,59.0,57.2,94,29.75,2.0,WNW,12.7,-,0.00,Rain,Light Rain,300,2012-09-30 18:07:00
2:14 PM,60.8,59.0,94,29.75,2.0,WNW,9.2,-,0.01,Rain,Light Rain,290,2012-09-30 18:14:00
2:24 PM,60.8,59.0,94,29.75,6.0,NW,13.8,-,0.01,Rain,Light Rain,310,2012-09-30 18:24:00
2:39 PM,60.8,57.2,88,29.75,10.0,WNW,8.1,-,0.01,,Overcast,300,2012-09-30 18:39:00
2:53 PM,61.0,57.9,90,29.76,10.0,WNW,10.4,-,0.01,,Overcast,290,2012-09-30 18:53:00
3:53 PM,61.0,57.0,87,29.74,10.0,WNW,10.4,-,0.00,,Overcast,300,2012-09-30 19:53:00
4:53 PM,61.0,55.9,83,29.75,10.0,West,8.1,-,N/A,,Mostly Cloudy,280,2012-09-30 20:53:00
5:53 PM,59.0,55.0,87,29.76,10.0,West,6.9,-,N/A,,Scattered Clouds,260,2012-09-30 21:53:00
6:53 PM,57.0,54.0,89,29.77,10.0,WSW,8.1,-,N/A,,Scattered Clouds,240,2012-09-30 22:53:00
7:53 PM,59.0,55.0,87,29.79,10.0,SW,10.4,-,N/A,,Scattered Clouds,230,2012-09-30 23:53:00
8:53 PM,61.0,57.0,87,29.80,10.0,SW,15.0,-,N/A,,Scattered Clouds,230,2012-10-01 00:53:00
9:00 PM,60.8,55.4,82,29.79,10.0,SW,11.5,20.7,N/A,,Mostly Cloudy,220,2012-10-01 01:00:00
9:34 PM,60.8,55.4,82,29.79,10.0,SW,16.1,-,N/A,,Scattered Clouds,220,2012-10-01 01:34:00
9:53 PM,61.0,55.9,83,29.80,10.0,SW,17.3,-,N/A,,Partly Cloudy,220,2012-10-01 01:53:00
10:53 PM,62.1,55.9,80,29.79,10.0,SW,17.3,-,N/A,,Partly Cloudy,220,2012-10-01 02:53:00
11:53 PM,63.0,55.0,75,29.79,10.0,SW,16.1,-,N/A,,Mostly Cloudy,230,2012-10-01 03:53:00